contact:dominique.lefevre@mio.osupytheas.fr, maurice.libes@osupytheas.fr, didier.mallarino@osupytheas.fr
Project:EMSO http://www.emso-fr.org/EMSO-France
Depth: 2436.0 m
Title:EMSO Ligure Ouest : Data MII capteur AQUADOPP
Date,Latitude,Longitude,X_East,Y_North,Z_Up,Amplitude_X,Amplitude_Y,Amplitude_Z,Batterie,SoundSpeed,Heading,Pitch,Roll,Pressure,TIS,Speed,Direction
, degrees North, degrees East, m.s-1, m.s-1,m.s-1, 1, 1, 1, Volt, m.s-1, degree, degree, degree, dbar, degree_C, m.s-1, degree
2023-12-03T00:04:03,42.805,6.029,0.039,-0.056,-0.012,109.0,107.0,106.0,13.4,1505.2,353.8,-0.8,1.8,2471.618,13.28,0.068,145.1
2023-12-03T00:07:03,42.805,6.029,0.035,-0.03,0.025,110.0,108.0,106.0,13.4,1505.2,338.7,-0.8,1.8,2471.598,13.29,0.046,130.6
2023-12-03T00:10:03,42.805,6.029,0.017,-0.049,-0.008,109.0,108.0,106.0,13.4,1505.2,354.2,-0.8,1.8,2471.629,13.29,0.051,160.9
2023-12-03T00:13:03,42.805,6.029,0.038,-0.06,-0.007,109.0,107.0,106.0,13.4,1505.2,340.4,-0.7,1.8,2471.602,13.29,0.071,147.7
2023-12-03T00:16:03,42.805,6.029,0.053,-0.061,0.014,109.0,109.0,106.0,13.3,1505.2,0.8,-0.8,1.8,2471.635,13.29,0.08,139.0
2023-12-03T00:19:03,42.805,6.029,0.038,-0.056,-0.022,109.0,108.0,106.0,13.3,1505.2,343.5,-0.8,1.8,2471.606,13.29,0.067,145.8
2023-12-03T00:22:03,42.805,6.029,0.032,-0.064,-0.011,109.0,108.0,105.0,13.3,1505.2,0.8,-0.8,1.8,2471.563,13.29,0.071,153.4
2023-12-03T00:25:03,42.805,6.029,0.046,-0.032,-0.042,109.0,108.0,106.0,13.4,1505.2,352.2,-0.8,1.8,2471.559,13.29,0.056,124.8
2023-12-03T00:28:03,42.805,6.029,0.031,-0.038,-0.02,109.0,109.0,106.0,13.3,1505.2,357.2,-0.7,1.9,2471.598,13.29,0.049,140.8
2023-12-03T00:31:03,42.805,6.029,0.064,-0.026,-0.029,110.0,108.0,106.0,13.4,1505.2,350.5,-0.8,1.8,2471.556,13.29,0.069,112.1
2023-12-03T00:34:03,42.805,6.029,0.042,-0.043,0.018,109.0,108.0,105.0,13.3,1505.2,353.9,-0.8,1.9,2471.547,13.29,0.06,135.7
2023-12-03T00:37:03,42.805,6.029,0.034,-0.038,-0.022,108.0,108.0,106.0,13.4,1505.2,358.4,-0.8,1.8,2471.53,13.29,0.05,138.2
2023-12-03T00:40:03,42.805,6.029,0.041,-0.056,-0.004,109.0,107.0,106.0,13.3,1505.2,354.2,-0.7,1.8,2471.548,13.29,0.069,143.8
2023-12-03T00:43:03,42.805,6.029,0.063,-0.043,-0.024,109.0,108.0,106.0,13.3,1505.2,341.5,-0.8,1.8,2471.567,13.29,0.076,124.3
2023-12-03T00:46:03,42.805,6.029,0.038,-0.052,-0.004,110.0,109.0,105.0,13.4,1505.2,350.6,-0.8,1.8,2471.556,13.29,0.064,143.8
2023-12-03T00:49:03,42.805,6.029,0.059,-0.026,-0.02,110.0,108.0,107.0,13.3,1505.2,338.0,-0.8,1.8,2471.562,13.29,0.064,113.8
2023-12-03T00:52:03,42.805,6.029,0.05,-0.041,-0.008,109.0,108.0,105.0,13.4,1505.2,0.0,-0.7,1.8,2471.517,13.29,0.064,129.3
2023-12-03T00:55:03,42.805,6.029,0.048,-0.041,0.021,109.0,108.0,106.0,13.3,1505.2,346.6,-0.7,1.8,2471.572,13.29,0.063,130.5
2023-12-03T00:58:03,42.805,6.029,0.043,-0.033,-0.021,108.0,110.0,106.0,13.3,1505.2,340.3,-0.8,1.8,2471.588,13.29,0.054,127.5
2023-12-03T01:04:03,42.805,6.029,0.063,-0.058,0.001,110.0,109.0,107.0,13.4,1505.2,341.5,-0.8,1.8,2471.622,13.28,0.085,132.6
2023-12-03T01:07:03,42.805,6.029,0.07,-0.045,-0.001,109.0,109.0,104.0,13.3,1505.2,336.5,-0.8,1.8,2471.62,13.28,0.083,122.7
2023-12-03T01:10:03,42.805,6.029,0.038,-0.043,0.008,110.0,109.0,106.0,13.3,1505.2,0.8,-0.8,1.8,2471.568,13.29,0.057,138.5
2023-12-03T01:13:03,42.805,6.029,0.034,-0.062,-0.022,110.0,108.0,106.0,13.4,1505.2,357.4,-0.8,1.8,2471.572,13.29,0.07,151.3
2023-12-03T01:16:03,42.805,6.029,0.044,-0.052,0.0,109.0,109.0,105.0,13.4,1505.2,346.3,-0.8,1.8,2471.523,13.29,0.068,139.8
2023-12-03T01:19:03,42.805,6.029,0.047,-0.058,0.016,110.0,109.0,106.0,13.4,1505.2,354.5,-0.8,1.8,2471.539,13.29,0.074,141.0
2023-12-03T01:22:03,42.805,6.029,0.058,-0.03,0.0,110.0,109.0,106.0,13.4,1505.2,339.8,-0.8,1.8,2471.553,13.29,0.065,117.4
2023-12-03T01:25:03,42.805,6.029,0.036,-0.034,-0.016,109.0,108.0,105.0,13.4,1505.2,348.2,-0.8,1.8,2471.557,13.29,0.049,133.4
2023-12-03T01:28:03,42.805,6.029,0.041,-0.033,-0.018,109.0,109.0,106.0,13.4,1505.2,345.9,-0.8,1.8,2471.546,13.29,0.052,128.8
2023-12-03T01:31:03,42.805,6.029,0.049,-0.017,-0.017,110.0,110.0,106.0,13.3,1505.2,338.3,-0.8,1.8,2471.581,13.29,0.051,109.1
2023-12-03T01:34:03,42.805,6.029,0.045,-0.039,-0.003,111.0,108.0,106.0,13.4,1505.2,0.9,-0.8,1.8,2471.545,13.29,0.059,130.9
2023-12-03T01:37:03,42.805,6.029,0.048,-0.042,-0.032,110.0,109.0,107.0,13.4,1505.2,355.6,-0.8,1.8,2471.557,13.29,0.063,131.2
2023-12-03T01:40:03,42.805,6.029,0.05,-0.056,0.017,109.0,110.0,105.0,13.4,1505.2,346.1,-0.7,1.8,2471.552,13.29,0.075,138.2
2023-12-03T01:43:03,42.805,6.029,0.037,-0.035,0.032,109.0,108.0,106.0,13.4,1505.2,345.3,-0.8,1.8,2471.526,13.29,0.05,133.4
2023-12-03T01:46:03,42.805,6.029,0.032,-0.033,-0.001,110.0,110.0,106.0,13.3,1505.2,359.1,-0.8,1.8,2471.567,13.29,0.045,135.9
2023-12-03T01:49:03,42.805,6.029,0.043,-0.04,-0.016,109.0,108.0,106.0,13.4,1505.2,345.9,-0.7,1.8,2471.562,13.29,0.058,132.9
2023-12-03T01:52:03,42.805,6.029,0.055,-0.019,0.036,109.0,108.0,107.0,13.4,1505.2,338.3,-0.8,1.8,2471.591,13.29,0.058,109.1
2023-12-03T01:55:03,42.805,6.029,0.047,-0.06,0.001,110.0,108.0,106.0,13.4,1505.2,346.3,-0.7,1.8,2471.593,13.29,0.076,141.9
2023-12-03T01:58:03,42.805,6.029,0.025,-0.05,-0.026,109.0,109.0,106.0,13.4,1505.2,353.4,-0.7,1.8,2471.538,13.29,0.055,153.4
2023-12-03T02:04:03,42.805,6.029,0.034,-0.062,-0.004,108.0,109.0,105.0,13.4,1505.2,2.5,-0.8,1.8,2471.61,13.28,0.07,151.3
2023-12-03T02:07:03,42.805,6.029,0.031,-0.045,-0.02,109.0,108.0,106.0,13.4,1505.2,353.7,-0.7,1.8,2471.542,13.28,0.054,145.4
2023-12-03T02:10:03,42.805,6.029,0.042,-0.028,-0.01,109.0,108.0,106.0,13.4,1505.2,336.5,-0.8,1.8,2471.59,13.29,0.05,123.7
2023-12-03T02:13:03,42.805,6.029,0.036,-0.04,-0.033,110.0,109.0,106.0,13.4,1505.2,358.2,-0.7,1.8,2471.548,13.29,0.053,138.0
2023-12-03T02:16:03,42.805,6.029,0.008,-0.03,0.016,108.0,108.0,106.0,13.3,1505.2,345.9,-0.7,1.8,2471.559,13.29,0.031,165.1
2023-12-03T02:19:03,42.805,6.029,0.035,-0.026,0.015,110.0,107.0,107.0,13.4,1505.2,353.8,-0.8,1.8,2471.59,13.29,0.043,126.6
2023-12-03T02:22:03,42.805,6.029,0.06,-0.04,-0.001,110.0,108.0,106.0,13.4,1505.2,344.0,-0.8,1.8,2471.588,13.29,0.072,123.7
2023-12-03T02:25:03,42.805,6.029,0.033,-0.042,-0.015,109.0,108.0,106.0,13.3,1505.2,352.9,-0.8,1.8,2471.538,13.29,0.053,141.8
2023-12-03T02:28:03,42.805,6.029,0.02,-0.036,-0.022,110.0,109.0,105.0,13.4,1505.2,2.5,-0.7,1.8,2471.517,13.29,0.041,150.9
2023-12-03T02:31:03,42.805,6.029,0.044,-0.025,-0.001,110.0,109.0,106.0,13.4,1505.2,345.1,-0.8,1.8,2471.543,13.29,0.05,119.6
2023-12-03T02:34:03,42.805,6.029,0.023,-0.042,0.011,109.0,110.0,105.0,13.3,1505.2,354.6,-0.8,1.8,2471.551,13.29,0.047,151.3
2023-12-03T02:37:03,42.805,6.029,0.035,-0.053,-0.022,108.0,109.0,105.0,13.4,1505.2,337.7,-0.8,1.8,2471.518,13.29,0.063,146.6
2023-12-03T02:40:03,42.805,6.029,0.026,-0.04,-0.014,110.0,109.0,106.0,13.3,1505.2,0.8,-0.7,1.8,2471.55,13.29,0.047,147.0
2023-12-03T02:43:03,42.805,6.029,0.057,-0.039,0.002,110.0,109.0,105.0,13.4,1505.2,345.9,-0.7,1.8,2471.536,13.29,0.069,124.4
2023-12-03T02:46:03,42.805,6.029,0.066,-0.054,-0.004,110.0,108.0,106.0,13.3,1505.2,347.2,-0.8,1.8,2471.544,13.29,0.085,129.3
2023-12-03T02:49:03,42.805,6.029,0.061,-0.053,-0.007,109.0,108.0,105.0,13.4,1505.2,340.8,-0.8,1.8,2471.527,13.29,0.08,131.0
2023-12-03T02:52:03,42.805,6.029,0.02,-0.04,-0.014,108.0,108.0,106.0,13.4,1505.2,0.8,-0.7,1.8,2471.488,13.29,0.044,153.4
2023-12-03T02:55:03,42.805,6.029,0.031,-0.056,0.0,110.0,109.0,106.0,13.4,1505.2,354.7,-0.7,1.8,2471.528,13.29,0.064,151.0
2023-12-03T02:58:03,42.805,6.029,0.045,-0.022,-0.013,110.0,109.0,106.0,13.3,1505.2,339.6,-0.8,1.8,2471.566,13.29,0.05,116.1
2023-12-03T03:04:03,42.805,6.029,0.041,-0.046,-0.009,109.0,108.0,106.0,13.4,1505.2,343.8,-0.7,1.8,2471.571,13.28,0.061,138.3
2023-12-03T03:07:03,42.805,6.029,0.04,-0.043,-0.005,108.0,109.0,105.0,13.3,1505.2,345.0,-0.8,1.8,2471.604,13.28,0.058,137.1
2023-12-03T03:10:03,42.805,6.029,0.049,-0.025,0.013,109.0,109.0,106.0,13.4,1505.2,345.9,-0.8,1.8,2471.583,13.29,0.055,117.0
2023-12-03T03:13:03,42.805,6.029,0.056,-0.051,-0.002,107.0,108.0,106.0,13.3,1505.2,344.1,-0.8,1.8,2471.613,13.29,0.075,132.3
2023-12-03T03:16:03,42.805,6.029,0.046,-0.049,0.006,109.0,108.0,106.0,13.4,1505.2,342.0,-0.8,1.8,2471.549,13.29,0.067,136.8
2023-12-03T03:19:03,42.805,6.029,0.065,-0.048,0.013,110.0,107.0,105.0,13.4,1505.2,345.5,-0.7,1.8,2471.552,13.29,0.08,126.4
2023-12-03T03:22:03,42.805,6.029,0.049,-0.04,0.005,109.0,108.0,105.0,13.4,1505.2,351.1,-0.8,1.8,2471.547,13.29,0.063,129.2
2023-12-03T03:25:03,42.805,6.029,0.028,-0.044,-0.006,108.0,109.0,105.0,13.4,1505.2,358.1,-0.8,1.8,2471.527,13.29,0.052,147.5
2023-12-03T03:28:03,42.805,6.029,0.029,-0.049,0.011,110.0,108.0,106.0,13.4,1505.2,355.5,-0.8,1.8,2471.542,13.29,0.056,149.4
2023-12-03T03:31:03,42.805,6.029,0.012,-0.039,0.0,110.0,109.0,105.0,13.4,1505.2,353.6,-0.7,1.8,2471.579,13.29,0.04,162.9
2023-12-03T03:34:03,42.805,6.029,0.032,-0.037,-0.002,108.0,108.0,105.0,13.3,1505.2,0.8,-0.7,1.8,2471.537,13.29,0.048,139.1
2023-12-03T03:37:03,42.805,6.029,0.027,-0.02,0.009,110.0,108.0,106.0,13.4,1505.2,344.7,-0.8,1.8,2471.535,13.29,0.033,126.5
2023-12-03T03:40:03,42.805,6.029,0.042,-0.046,0.015,110.0,108.0,105.0,13.3,1505.2,343.8,-0.7,1.8,2471.537,13.29,0.062,137.6
2023-12-03T03:43:03,42.805,6.029,0.012,-0.026,-0.017,110.0,108.0,105.0,13.4,1505.2,358.1,-0.7,1.8,2471.522,13.29,0.028,155.2
2023-12-03T03:46:03,42.805,6.029,0.046,-0.065,-0.004,110.0,110.0,105.0,13.4,1505.2,340.1,-0.7,1.8,2471.584,13.29,0.079,144.7
2023-12-03T03:49:03,42.805,6.029,0.039,-0.048,-0.004,110.0,109.0,106.0,13.3,1505.2,347.2,-0.8,1.8,2471.571,13.29,0.061,140.9
2023-12-03T03:52:03,42.805,6.029,0.042,-0.024,-0.012,109.0,109.0,105.0,13.4,1505.2,344.4,-0.8,1.9,2471.564,13.29,0.048,119.7
2023-12-03T03:55:03,42.805,6.029,0.046,-0.028,-0.027,109.0,109.0,105.0,13.3,1505.2,342.8,-0.8,1.8,2471.558,13.29,0.053,121.3
2023-12-03T03:58:03,42.805,6.029,0.059,-0.033,-0.013,111.0,108.0,106.0,13.4,1505.2,346.3,-0.8,1.8,2471.533,13.29,0.067,119.2
2023-12-03T04:04:03,42.805,6.029,0.045,-0.046,0.004,111.0,108.0,106.0,13.4,1505.2,356.4,-0.8,1.8,2471.604,13.28,0.064,135.6
2023-12-03T04:07:03,42.805,6.029,0.043,-0.045,0.0,110.0,109.0,106.0,13.4,1505.2,342.3,-0.8,1.8,2471.595,13.29,0.062,136.3
2023-12-03T04:10:03,42.805,6.029,0.037,-0.04,0.007,109.0,108.0,106.0,13.4,1505.2,354.5,-0.8,1.8,2471.585,13.29,0.054,137.2
2023-12-03T04:13:03,42.805,6.029,0.053,-0.034,-0.006,110.0,110.0,106.0,13.4,1505.2,342.8,-0.8,1.8,2471.593,13.29,0.062,122.7
2023-12-03T04:16:03,42.805,6.029,0.042,-0.051,0.001,110.0,110.0,106.0,13.4,1505.2,1.7,-0.7,1.8,2471.585,13.29,0.066,140.5
2023-12-03T04:19:03,42.805,6.029,0.023,-0.07,-0.025,109.0,109.0,106.0,13.3,1505.2,358.3,-0.7,1.8,2471.55,13.29,0.073,161.8
2023-12-03T04:22:03,42.805,6.029,0.044,-0.027,0.003,110.0,110.0,107.0,13.4,1505.2,339.6,-0.7,1.8,2471.535,13.29,0.051,121.5
2023-12-03T04:25:03,42.805,6.029,0.026,-0.03,-0.01,108.0,109.0,106.0,13.4,1505.2,345.1,-0.8,1.8,2471.562,13.29,0.039,139.1
2023-12-03T04:28:03,42.805,6.029,0.041,-0.031,-0.022,110.0,109.0,106.0,13.4,1505.2,347.0,-0.8,1.8,2471.553,13.29,0.051,127.1
2023-12-03T04:31:03,42.805,6.029,0.04,-0.041,0.007,109.0,109.0,105.0,13.3,1505.2,356.1,-0.8,1.8,2471.531,13.29,0.057,135.7
2023-12-03T04:34:03,42.805,6.029,0.041,-0.02,-0.016,111.0,109.0,107.0,13.4,1505.2,339.3,-0.8,1.8,2471.538,13.29,0.045,116.0
2023-12-03T04:37:03,42.805,6.029,0.033,-0.022,0.003,110.0,108.0,107.0,13.4,1505.2,338.6,-0.8,1.8,2471.539,13.29,0.039,123.7
2023-12-03T04:40:03,42.805,6.029,0.069,-0.037,-0.007,110.0,109.0,106.0,13.3,1505.2,335.9,-0.8,1.8,2471.527,13.29,0.078,118.2
2023-12-03T04:43:03,42.805,6.029,0.046,-0.022,0.019,110.0,110.0,106.0,13.3,1505.2,339.3,-0.7,1.8,2471.536,13.29,0.05,115.6
2023-12-03T04:46:03,42.805,6.029,0.048,-0.035,-0.014,110.0,108.0,106.0,13.4,1505.2,346.4,-0.8,1.8,2471.565,13.29,0.059,126.1
2023-12-03T04:49:03,42.805,6.029,0.034,-0.056,-0.002,109.0,109.0,106.0,13.4,1505.2,348.6,-0.7,1.8,2471.537,13.29,0.065,148.7
2023-12-03T04:52:03,42.805,6.029,0.032,-0.057,0.004,110.0,108.0,107.0,13.4,1505.2,343.8,-0.7,1.8,2471.53,13.29,0.065,150.7
2023-12-03T04:55:03,42.805,6.029,0.047,-0.009,-0.004,109.0,110.0,106.0,13.4,1505.2,339.9,-0.8,1.8,2471.523,13.29,0.047,100.8
2023-12-03T04:58:03,42.805,6.029,0.033,-0.037,-0.005,109.0,108.0,106.0,13.4,1505.2,340.7,-0.8,1.8,2471.545,13.29,0.049,138.3
2023-12-03T05:04:03,42.805,6.029,0.066,-0.035,-0.015,110.0,110.0,106.0,13.4,1505.2,339.3,-0.8,1.8,2471.61,13.28,0.074,117.9
2023-12-03T05:07:03,42.805,6.029,0.051,-0.043,-0.018,110.0,109.0,106.0,13.4,1505.2,347.2,-0.7,1.8,2471.574,13.28,0.066,130.1
2023-12-03T05:10:03,42.805,6.029,0.019,-0.054,-0.017,110.0,110.0,107.0,13.4,1505.2,353.3,-0.8,1.8,2471.559,13.29,0.057,160.6
2023-12-03T05:13:03,42.805,6.029,0.031,-0.051,-0.007,110.0,110.0,106.0,13.4,1505.2,0.8,-0.7,1.8,2471.599,13.29,0.059,148.7
2023-12-03T05:16:03,42.805,6.029,0.056,-0.038,0.005,109.0,110.0,106.0,13.4,1505.2,346.5,-0.8,1.8,2471.562,13.29,0.067,124.2
2023-12-03T05:19:03,42.805,6.029,0.063,-0.033,-0.019,110.0,108.0,106.0,13.3,1505.2,341.8,-0.8,1.8,2471.608,13.29,0.071,117.6
2023-12-03T05:22:03,42.805,6.029,0.033,-0.056,0.003,109.0,109.0,105.0,13.4,1505.2,353.6,-0.8,1.8,2471.526,13.29,0.064,149.5
2023-12-03T05:25:03,42.805,6.029,0.021,-0.039,0.017,111.0,109.0,105.0,13.3,1505.2,354.6,-0.8,1.9,2471.581,13.29,0.044,151.7
2023-12-03T05:28:03,42.805,6.029,0.034,-0.037,0.005,110.0,110.0,106.0,13.3,1505.2,1.7,-0.8,1.8,2471.565,13.29,0.05,137.4
2023-12-03T05:31:03,42.805,6.029,0.028,-0.059,-0.011,110.0,109.0,105.0,13.4,1505.2,340.3,-0.8,1.8,2471.549,13.29,0.065,154.6
2023-12-03T05:34:03,42.805,6.029,0.04,-0.031,-0.006,110.0,109.0,106.0,13.4,1505.2,345.3,-0.8,1.8,2471.561,13.29,0.05,127.8
2023-12-03T05:37:03,42.805,6.029,0.031,-0.057,-0.004,109.0,109.0,106.0,13.3,1505.2,357.5,-0.8,1.8,2471.543,13.29,0.064,151.5
2023-12-03T05:40:03,42.805,6.029,0.029,-0.029,-0.031,109.0,109.0,105.0,13.4,1505.2,351.7,-0.8,1.8,2471.584,13.29,0.041,135.0
2023-12-03T05:43:03,42.805,6.029,0.029,-0.048,-0.005,110.0,108.0,106.0,13.3,1505.2,337.9,-0.8,1.8,2471.575,13.29,0.056,148.9
2023-12-03T05:46:03,42.805,6.029,0.03,-0.05,-0.027,110.0,110.0,107.0,13.4,1505.2,346.3,-0.8,1.8,2471.584,13.29,0.058,149.0
2023-12-03T05:49:03,42.805,6.029,0.041,-0.033,-0.033,110.0,109.0,107.0,13.3,1505.2,339.5,-0.8,1.8,2471.578,13.29,0.052,128.8
2023-12-03T05:52:03,42.805,6.029,0.041,-0.066,0.0,110.0,109.0,106.0,13.3,1505.2,357.2,-0.8,1.8,2471.565,13.29,0.077,148.1
2023-12-03T05:55:03,42.805,6.029,0.026,-0.039,0.0,109.0,109.0,106.0,13.4,1505.2,346.8,-0.8,1.8,2471.539,13.29,0.046,146.3
2023-12-03T05:58:03,42.805,6.029,0.025,-0.033,-0.001,110.0,109.0,106.0,13.3,1505.2,343.7,-0.8,1.8,2471.573,13.29,0.041,142.8
2023-12-03T06:04:03,42.805,6.029,0.038,-0.046,0.0,110.0,108.0,106.0,13.4,1505.2,354.4,-0.7,1.8,2471.612,13.28,0.059,140.4
2023-12-03T06:07:03,42.805,6.029,0.039,-0.05,-0.013,111.0,108.0,106.0,13.4,1505.2,359.1,-0.8,1.8,2471.627,13.28,0.063,142.0
2023-12-03T06:10:03,42.805,6.029,0.049,-0.048,-0.006,110.0,110.0,106.0,13.4,1505.2,350.8,-0.8,1.8,2471.608,13.29,0.068,134.4
2023-12-03T06:13:03,42.805,6.029,0.063,-0.028,0.014,109.0,109.0,106.0,13.4,1505.2,337.6,-0.8,1.8,2471.581,13.29,0.068,114.0
2023-12-03T06:16:03,42.805,6.029,0.013,-0.032,-0.045,110.0,109.0,107.0,13.3,1505.2,348.8,-0.8,1.8,2471.581,13.29,0.034,157.9
2023-12-03T06:19:03,42.805,6.029,0.035,-0.062,-0.011,109.0,109.0,106.0,13.3,1505.2,3.4,-0.8,1.8,2471.595,13.29,0.071,150.6
2023-12-03T06:22:03,42.805,6.029,0.037,-0.03,0.009,111.0,109.0,106.0,13.3,1505.2,351.6,-0.8,1.8,2471.571,13.29,0.047,129.0
2023-12-03T06:25:03,42.805,6.029,0.034,-0.037,-0.009,110.0,109.0,106.0,13.4,1505.2,345.3,-0.8,1.8,2471.584,13.29,0.05,137.4
2023-12-03T06:28:03,42.805,6.029,0.024,-0.007,-0.001,111.0,109.0,105.0,13.4,1505.2,353.2,-0.8,1.9,2471.574,13.29,0.025,106.3
2023-12-03T06:31:03,42.805,6.029,0.021,-0.065,-0.05,109.0,109.0,106.0,13.3,1505.2,0.8,-0.8,1.8,2471.606,13.29,0.068,162.1
2023-12-03T06:34:03,42.805,6.029,0.018,-0.029,0.021,110.0,109.0,106.0,13.3,1505.2,0.8,-0.7,1.8,2471.574,13.29,0.034,148.2
2023-12-03T06:37:03,42.805,6.029,0.047,-0.024,-0.013,109.0,110.0,107.0,13.3,1505.2,341.8,-0.8,1.8,2471.589,13.29,0.052,117.0
2023-12-03T06:40:03,42.805,6.029,0.055,-0.037,-0.024,111.0,110.0,106.0,13.4,1505.2,340.1,-0.8,1.8,2471.588,13.29,0.066,123.9
2023-12-03T06:43:03,42.805,6.029,0.049,-0.05,0.0,110.0,110.0,106.0,13.4,1505.2,338.7,-0.8,1.8,2471.595,13.29,0.07,135.6
2023-12-03T06:46:03,42.805,6.029,0.049,-0.052,0.003,110.0,110.0,106.0,13.4,1505.2,347.1,-0.8,1.8,2471.572,13.29,0.071,136.7
2023-12-03T06:49:03,42.805,6.029,0.005,-0.049,-0.049,111.0,108.0,107.0,13.4,1505.2,1.7,-0.8,1.8,2471.635,13.29,0.049,174.2
2023-12-03T06:52:03,42.805,6.029,0.034,-0.052,-0.003,109.0,110.0,107.0,13.4,1505.2,355.4,-0.7,1.8,2471.625,13.29,0.062,146.8
2023-12-03T06:55:03,42.805,6.029,0.036,-0.044,-0.004,109.0,110.0,106.0,13.4,1505.2,351.9,-0.8,1.8,2471.584,13.29,0.056,140.7
2023-12-03T06:58:03,42.805,6.029,0.042,-0.037,0.022,111.0,110.0,105.0,13.4,1505.2,358.1,-0.8,1.8,2471.597,13.29,0.055,131.4
2023-12-03T07:04:03,42.805,6.029,0.037,-0.032,-0.009,111.0,110.0,106.0,13.4,1505.2,338.4,-0.8,1.8,2471.632,13.28,0.048,130.9
2023-12-03T07:07:03,42.805,6.029,0.03,-0.067,0.011,109.0,109.0,106.0,13.4,1505.2,0.8,-0.7,1.8,2471.636,13.28,0.073,155.9
2023-12-03T07:10:03,42.805,6.029,0.037,-0.034,0.001,110.0,110.0,106.0,13.4,1505.2,348.6,-0.8,1.8,2471.643,13.29,0.05,132.6
2023-12-03T07:13:03,42.805,6.029,0.039,-0.039,-0.008,109.0,109.0,105.0,13.4,1505.2,352.4,-0.8,1.8,2471.637,13.29,0.055,135.0
2023-12-03T07:16:03,42.805,6.029,0.037,-0.039,-0.012,109.0,110.0,105.0,13.4,1505.2,345.7,-0.7,1.8,2471.635,13.29,0.053,136.5
2023-12-03T07:19:03,42.805,6.029,0.015,-0.056,-0.021,109.0,108.0,107.0,13.4,1505.2,0.8,-0.7,1.8,2471.628,13.29,0.057,165.0
2023-12-03T07:22:03,42.805,6.029,0.048,-0.038,0.0,110.0,109.0,106.0,13.4,1505.2,343.9,-0.8,1.8,2471.617,13.29,0.061,128.4
2023-12-03T07:25:03,42.805,6.029,0.003,-0.068,-0.008,108.0,110.0,105.0,13.4,1505.2,357.3,-0.8,1.8,2471.606,13.29,0.068,177.5
2023-12-03T07:28:03,42.805,6.029,0.06,-0.043,-0.028,111.0,109.0,106.0,13.3,1505.2,340.2,-0.8,1.8,2471.627,13.29,0.073,125.6
2023-12-03T07:31:03,42.805,6.029,0.042,-0.04,-0.015,110.0,109.0,105.0,13.3,1505.2,350.7,-0.8,1.8,2471.631,13.29,0.057,133.6
2023-12-03T07:34:03,42.805,6.029,0.026,-0.053,0.0,110.0,110.0,106.0,13.4,1505.2,359.1,-0.7,1.8,2471.642,13.29,0.059,153.9
2023-12-03T07:37:03,42.805,6.029,0.037,-0.032,0.001,111.0,108.0,106.0,13.3,1505.2,344.3,-0.7,1.8,2471.631,13.29,0.048,130.9
2023-12-03T07:40:03,42.805,6.029,0.054,-0.052,-0.008,108.0,109.0,106.0,13.4,1505.2,345.7,-0.8,1.8,2471.636,13.29,0.074,133.9
2023-12-03T07:43:03,42.805,6.029,0.031,-0.039,0.018,109.0,110.0,106.0,13.4,1505.2,0.9,-0.8,1.8,2471.624,13.29,0.049,141.5
2023-12-03T07:46:03,42.805,6.029,0.05,-0.048,-0.014,109.0,110.0,107.0,13.4,1505.2,346.1,-0.8,1.8,2471.633,13.29,0.069,133.8
2023-12-03T07:49:03,42.805,6.029,0.017,-0.064,0.001,109.0,108.0,106.0,13.4,1505.2,356.5,-0.8,1.8,2471.63,13.29,0.066,165.1
2023-12-03T07:52:03,42.805,6.029,0.039,-0.021,0.005,110.0,107.0,105.0,13.4,1505.2,335.6,-0.8,1.8,2471.65,13.29,0.044,118.3
2023-12-03T07:55:03,42.805,6.029,0.037,-0.035,-0.01,110.0,108.0,106.0,13.4,1505.2,339.3,-0.8,1.8,2471.604,13.29,0.05,133.4
2023-12-03T07:58:03,42.805,6.029,0.026,-0.063,0.003,109.0,110.0,105.0,13.3,1505.2,0.8,-0.8,1.9,2471.623,13.29,0.068,157.6
2023-12-03T08:04:03,42.805,6.029,0.016,-0.041,-0.046,110.0,109.0,107.0,13.4,1505.2,339.0,-0.8,1.8,2471.706,13.28,0.044,158.7
2023-12-03T08:07:03,42.805,6.029,0.067,-0.035,-0.002,110.0,109.0,106.0,13.4,1505.2,344.4,-0.8,1.8,2471.695,13.29,0.075,117.6
2023-12-03T08:10:03,42.805,6.029,0.022,-0.027,-0.009,109.0,109.0,106.0,13.4,1505.2,0.0,-0.8,1.8,2471.695,13.29,0.034,140.8
2023-12-03T08:13:03,42.805,6.029,0.02,-0.016,-0.012,109.0,109.0,107.0,13.4,1505.2,344.5,-0.8,1.8,2471.656,13.29,0.025,128.7
2023-12-03T08:16:03,42.805,6.029,0.036,-0.069,-0.021,111.0,109.0,106.0,13.4,1505.2,355.6,-0.7,1.8,2471.651,13.29,0.077,152.4
2023-12-03T08:19:03,42.805,6.029,0.027,-0.027,-0.022,110.0,109.0,105.0,13.4,1505.2,338.6,-0.8,1.8,2471.644,13.29,0.038,135.0
2023-12-03T08:22:03,42.805,6.029,0.031,-0.054,-0.021,109.0,109.0,106.0,13.4,1505.2,1.6,-0.8,1.8,2471.668,13.29,0.062,150.1
2023-12-03T08:25:03,42.805,6.029,0.052,-0.025,-0.008,108.0,109.0,107.0,13.4,1505.2,342.6,-0.8,1.8,2471.639,13.29,0.057,115.7
2023-12-03T08:28:03,42.805,6.029,0.043,-0.033,-0.035,110.0,108.0,106.0,13.3,1505.2,337.1,-0.8,1.8,2471.665,13.29,0.054,127.5
2023-12-03T08:31:03,42.805,6.029,0.059,-0.042,0.009,108.0,109.0,105.0,13.3,1505.2,336.2,-0.8,1.8,2471.717,13.29,0.072,125.4
2023-12-03T08:34:03,42.805,6.029,0.031,-0.026,0.003,109.0,109.0,106.0,13.4,1505.2,351.8,-0.7,1.8,2471.638,13.29,0.04,130.0
2023-12-03T08:37:03,42.805,6.029,0.024,-0.052,-0.026,111.0,107.0,106.0,13.4,1505.2,347.9,-0.8,1.8,2471.688,13.29,0.057,155.2
2023-12-03T08:40:03,42.805,6.029,0.022,-0.057,-0.019,111.0,108.0,106.0,13.4,1505.2,354.8,-0.8,1.9,2471.659,13.29,0.061,158.9
2023-12-03T08:43:03,42.805,6.029,0.044,-0.043,-0.003,109.0,109.0,106.0,13.4,1505.2,338.6,-0.8,1.8,2471.695,13.29,0.061,134.3
2023-12-03T08:46:03,42.805,6.029,0.027,-0.056,-0.035,109.0,108.0,106.0,13.4,1505.2,352.0,-0.8,1.8,2471.705,13.29,0.062,154.3
2023-12-03T08:49:03,42.805,6.029,0.025,-0.031,-0.009,110.0,109.0,107.0,13.3,1505.2,0.0,-0.7,1.8,2471.668,13.29,0.039,141.1
2023-12-03T08:52:03,42.805,6.029,0.035,-0.036,-0.006,110.0,108.0,107.0,13.4,1505.2,351.7,-0.8,1.8,2471.668,13.29,0.05,135.8
2023-12-03T08:55:03,42.805,6.029,0.033,-0.033,0.001,110.0,109.0,106.0,13.3,1505.2,345.1,-0.8,1.8,2471.7,13.29,0.046,135.0
2023-12-03T08:58:03,42.805,6.029,0.035,-0.03,-0.026,110.0,109.0,106.0,13.3,1505.2,349.9,-0.7,1.8,2471.71,13.29,0.046,130.6
2023-12-03T09:04:03,42.805,6.029,0.049,-0.042,-0.01,110.0,109.0,106.0,13.4,1505.2,350.3,-0.7,1.8,2471.736,13.28,0.064,130.6
2023-12-03T09:07:03,42.805,6.029,0.044,-0.025,-0.014,110.0,108.0,107.0,13.3,1505.2,348.5,-0.8,1.8,2471.733,13.29,0.05,119.6
2023-12-03T09:10:03,42.805,6.029,0.054,-0.032,-0.041,110.0,109.0,106.0,13.4,1505.2,341.5,-0.8,1.8,2471.748,13.29,0.062,120.7
2023-12-03T09:13:03,42.805,6.029,0.056,-0.027,0.0,110.0,109.0,106.0,13.4,1505.2,346.1,-0.8,1.8,2471.715,13.29,0.062,115.7
2023-12-03T09:16:03,42.805,6.029,0.046,-0.064,-0.004,110.0,108.0,106.0,13.3,1505.2,359.0,-0.8,1.8,2471.704,13.29,0.078,144.3
2023-12-03T09:19:03,42.805,6.029,0.05,-0.043,0.003,110.0,108.0,106.0,13.4,1505.2,346.9,-0.8,1.8,2471.714,13.29,0.065,130.7
2023-12-03T09:22:03,42.805,6.029,0.037,-0.035,-0.004,109.0,110.0,107.0,13.4,1505.2,345.7,-0.8,1.8,2471.694,13.29,0.05,133.4
2023-12-03T09:25:03,42.805,6.029,0.026,-0.03,-0.004,110.0,109.0,106.0,13.4,1505.2,355.2,-0.8,1.8,2471.701,13.29,0.039,139.1
2023-12-03T09:28:03,42.805,6.029,0.036,-0.026,-0.004,110.0,109.0,105.0,13.4,1505.2,345.7,-0.7,1.8,2471.695,13.29,0.044,125.8
2023-12-03T09:31:03,42.805,6.029,0.029,-0.033,-0.016,110.0,109.0,106.0,13.4,1505.2,358.1,-0.8,1.8,2471.706,13.29,0.043,138.7
2023-12-03T09:34:03,42.805,6.029,0.034,-0.035,-0.031,110.0,108.0,107.0,13.4,1505.2,347.9,-0.8,1.8,2471.707,13.29,0.048,135.8
2023-12-03T09:37:03,42.805,6.029,0.024,-0.038,-0.041,109.0,109.0,105.0,13.4,1505.2,350.5,-0.7,1.8,2471.736,13.29,0.044,147.7
2023-12-03T09:40:03,42.805,6.029,0.024,-0.038,0.018,109.0,109.0,106.0,13.4,1505.2,344.0,-0.8,1.8,2471.733,13.29,0.044,147.7
2023-12-03T09:43:03,42.805,6.029,0.021,-0.03,-0.025,109.0,109.0,106.0,13.3,1505.2,350.4,-0.8,1.8,2471.743,13.29,0.036,145.0
2023-12-03T09:46:03,42.805,6.029,0.045,-0.039,-0.01,109.0,109.0,106.0,13.4,1505.2,356.3,-0.8,1.8,2471.745,13.29,0.059,130.9
2023-12-03T09:49:03,42.805,6.029,0.043,-0.019,-0.011,108.0,109.0,106.0,13.4,1505.2,352.9,-0.8,1.8,2471.712,13.29,0.047,113.8
2023-12-03T09:52:03,42.805,6.029,0.024,-0.036,-0.004,108.0,108.0,106.0,13.4,1505.2,347.9,-0.8,1.8,2471.695,13.29,0.043,146.3
2023-12-03T09:55:03,42.805,6.029,0.056,-0.043,-0.016,109.0,109.0,105.0,13.4,1505.2,347.0,-0.7,1.8,2471.734,13.29,0.07,127.5